Weather WX

World > North America > United States > Missouri

Cleveland, Missouri Regional Weather

Lat: 38.68N, Lon: 94.59W
Wx Zone: MOZ043
Warning FLW WEATHER ALERT - (More Info. Click Here) Warning
Feedback

Cleveland, MO Regional Weather

Expires:201906260500;;086954
ASUS43 KEAX 260410
RWREAX

WEATHER ROUNDUP FOR EASTERN KANSAS AND NORTHWEST MISSOURI
NATIONAL WEATHER SERVICE KANSAS CITY/PLEASANT HILL MO
1100 PM CDT TUE JUN 25 2019


KSZ040-057-103>105-MOZ028-029-037-043-260500-
...KANSAS CITY METROPOLITAN AREA...
  
CITY           SKY/WX    TMP DP  RH WIND       PRES   REMARKS
K.C. INTL      MOCLDY    75  68  78 SW8       30.00R                  
K.C. DOWNTOWN  CLEAR     78  68  71 SW6       29.98R                  
LEES SUMMIT    CLEAR     78  67  68 S8        30.00R                  
OLATHE - IXD   CLEAR     75  70  84 S6        30.01R                  
OLATHE - OJC   CLEAR     75  70  84 S7        30.00R                  
LAWRENCE       PTCLDY    77  69  76 W3        30.00R                  

$$
 

SKY/WX - Weather  TMP - Temperature  DP - Dew Point  RH - Relative Humidity
WIND - Wind Direction/Speed PRES - Barometric Pressure VSB - Visibility
WCI - Wind Chill Index E13G22 Wind - East Wind 13 mph/Gusts of 22 mph